Location: Upper Village
(44.1773°N, 71.9443°W)
Time: 05:49:47
(UTC+00:00)

Daily predictions for brighter satellites

Satellite Brightness Start Highest point End
(mag) Time Altitude Azimuth Time Altitude Azimuth Time Altitude Azimuth
Cosmos 2026 Rocket 4.3 00:55:55 10° SSW 01:02:04 72° W 01:08:09 10° N
Cosmos 2082 Rocket 2.8 00:57:56 10° SW 01:03:36 65° WNW 01:09:17 10° NNE
Cosmos 2333 Rocket 3.8 01:00:41 10° N 01:05:09 23° NE 01:09:37 10° E
Cosmos 1707 2.7 01:02:00 10° S 01:05:32 55° E 01:09:04 10° NNE
Cosmos 2369 4.1 01:00:31 10° NNW 01:06:12 66° WSW 01:11:52 10° SSE
RESURS DK-1 3.8 01:06:21 10° N 01:09:49 26° NE 01:13:16 10° ESE
MOS 1-B Rocket 4.4 01:05:23 10° S 01:11:29 64° WSW 01:17:05 10° NNW
PSLV R/B 4.2 01:08:20 10° S 01:11:48 54° W 01:15:15 10° NNW
ERS-1 Rocket 3.7 01:10:26 10° SE 01:15:04 39° ENE 01:19:42 10° N
Atlas Centaur 2 3.9 01:08:56 10° WSW 01:15:34 30° S 01:22:30 10° SE
SJ 16-02 3.4 01:15:07 10° ESE 01:15:56 10° E 01:16:47 10° E
Cosmos 841 Rocket 4.2 01:12:24 10° N 01:17:26 43° ENE 01:22:24 10° SE
Cosmos 1763 Rocket 3.9 01:13:08 10° NNW 01:18:20 63° WSW 01:23:24 10° S
USA 234 3.4 01:13:22 10° ENE 01:19:43 51° SE 01:26:01 10° SSW
MetOp-B 4.2 01:15:05 10° SSE 01:20:23 67° ENE 01:25:42 10° N
CZ-4C R/B 3.5 01:16:22 10° NNE 01:20:30 64° ESE 01:24:34 10° S
Cosmos 1674 3.4 01:18:50 10° SSW 01:22:12 49° W 01:25:34 10° N
Terra 2.6 01:18:17 10° SE 01:22:34 36° ENE 01:26:53 10° N
Spot 2 Rocket 4.2 01:24:12 10° SE 01:28:51 39° ENE 01:33:33 10° N
SL-27 R/B 3.7 01:28:29 12° SE 01:29:38 15° E 01:31:21 10° ENE
SL-4 R/B 3.9 01:28:56 10° WNW 01:32:14 28° N 01:35:45 10° NE
BREEZE-M DEB (TANK) 3.1 01:32:45 10° WSW 01:36:00 81° SSE 01:46:26 10° ENE
Cosmos 1300 3.8 01:33:59 10° NNE 01:37:01 25° ENE 01:39:22 14° SE
IRS-1A Rocket 4.2 01:32:03 10° SSE 01:37:32 77° ENE 01:43:04 10° NNW
Cosmos 1733 Rocket 4.2 01:37:08 10° NNE 01:40:58 28° ENE 01:44:04 14° SE
Cosmos 1980 Rocket 4.0 01:36:30 10° NW 01:41:06 26° WSW 01:45:40 10° SSW
ARGOS Delta rocket 3.7 01:36:43 10° S 01:41:11 83° W 01:45:36 10° NNW
Cosmos 1441 Rocket 3.3 01:39:31 10° NNW 01:43:07 68° W 01:46:44 10° S
Cosmos 2322 Rocket 2.6 01:38:05 10° NNW 01:43:38 53° ENE 01:48:23 14° SE
Cosmos 1400 Rocket 2.7 01:40:50 10° S 01:44:40 63° E 01:48:29 10° NNE
Meteor 1-22 Rocket 4.3 01:40:28 10° N 01:46:09 73° E 01:51:41 12° SSE
Meteor 2-10 Rocket 3.9 01:41:11 10° N 01:46:38 55° ENE 01:51:05 14° SSE
Cosmos 1908 3.6 01:44:24 10° NNW 01:47:57 57° W 01:51:30 10° S
Okean-O 3.6 01:44:28 10° S 01:48:40 43° W 01:52:54 10° NNW
Meteor 1-4 Rocket 4.2 01:49:01 12° E 01:49:28 13° E 01:50:53 10° ENE
SL-08 ROCKET BODY 4.4 01:43:33 10° S 01:49:39 71° E 01:55:40 10° NNE
ATLAS CENTAUR R/B 1.0 01:46:44 10° SSW 01:50:06 52° ESE 01:53:35 10° NE
Cosmos 1356 Rocket 4.0 01:46:46 13° SSE 01:50:09 39° E 01:54:05 10° NNE
Ariane Rocket 3.2 01:49:18 14° SSE 01:53:34 61° ENE 01:58:35 10° N
Cosmos 2278 4.0 01:50:59 10° NNW 01:56:38 64° WSW 02:01:45 13° S
USA 245 3.2 01:54:39 16° SSE 01:57:26 90° NNW 02:01:49 10° NNW
EXPRESS MD2 4.3 01:57:59 10° W 02:00:37 30° NNW 02:02:40 10° NE
ATLAS 2AS CENTAUR R/B 3.0 01:54:14 10° NNW 02:01:00 58° NE 02:06:25 15° ESE
Timation 1 Rocket 4.4 01:58:31 10° SSW 02:04:29 87° WNW 02:10:29 10° NNE
Cosmos 1315 Rocket 4.3 02:03:13 17° ESE 02:04:32 20° E 02:07:29 10° NE
Cosmos 1953 4.2 02:02:06 10° NNE 02:04:34 16° ENE 02:06:11 13° E
Cosmos 1869 Rocket 4.1 02:01:00 10° NNW 02:05:23 59° W 02:09:36 11° S
Cosmos 2228 Rocket 3.2 02:02:01 13° S 02:05:58 64° E 02:10:30 10° NNE
Okean O Rocket 4.2 02:05:03 10° SW 02:07:40 15° W 02:10:18 10° NW
Cosmos 2219 Rocket 3.2 02:02:40 10° N 02:07:52 35° NE 02:11:59 15° ESE
Cosmos 1850 Rocket 3.9 02:02:55 10° SSW 02:08:09 80° ESE 02:13:22 10° NNE
BREEZE-M DEB (TANK) 2.6 02:06:41 10° NW 02:08:41 46° NNE 02:11:01 14° E
Meteor 1-21 4.4 02:03:37 13° S 02:08:41 57° E 02:14:23 10° NNE
S3M 4.2 02:03:26 10° N 02:09:49 77° W 02:15:46 12° S
MOS 1 Rocket 3.6 02:07:54 16° SSE 02:12:17 88° ENE 02:17:36 10° NNW
BlueWalker 3 3.4 02:14:18 19° ESE 02:14:18 19° ESE 02:16:11 10° E
Landsat 4 3.4 02:11:53 23° SSE 02:13:54 86° ENE 02:17:21 10° NNW
Cosmos 2266 Rocket 4.4 02:11:50 10° SSW 02:18:06 66° W 02:24:30 10° N
Spot 1 4.4 02:15:14 10° NNE 02:19:45 54° ESE 02:22:58 20° S
Cosmos 968 Rocket 3.4 02:15:36 10° S 02:20:41 71° ESE 02:25:53 10° NNE
SeaSat 1 2.7 02:18:09 19° S 02:21:39 61° WSW 02:26:31 10° NW
SPOT 3 Rocket 3.6 02:20:05 19° S 02:23:53 80° WSW 02:29:05 10° NNW
Cosmos 1655 Rocket 4.1 02:18:23 10° S 02:24:47 84° W 02:31:14 10° N
MetOp-A 4.3 02:22:21 22° SE 02:25:34 57° ENE 02:30:43 10° N
SPOT 5 4.4 02:23:04 10° SSW 02:26:40 26° W 02:30:20 10° NW
SL-14 R/B 3.5 02:24:50 14° SSW 02:28:02 64° W 02:31:49 10° N
Cosmos 1741 Rocket 4.2 02:23:32 10° SSW 02:28:47 73° WNW 02:34:07 10° NNE
Landsat 5 3.4 02:26:26 10° NNE 02:30:27 64° ESE 02:32:47 25° S
Cosmos 839 Rocket 4.4 02:23:36 10° NNW 02:30:28 61° NE 02:34:39 21° SE
Cosmos 2360 Rocket 2.2 02:27:35 10° NNW 02:33:17 84° WSW 02:36:45 25° SSE
Cosmos 1346 Rocket 2.8 02:30:18 10° NNW 02:34:09 72° W 02:36:07 27° S
Cosmos 1814 Rocket 4.1 02:29:29 10° NNW 02:34:47 69° ENE 02:37:47 26° SE
Cosmos 1455 3.2 02:32:17 10° NNE 02:35:22 28° ENE 02:36:13 25° ESE
Okean 3 3.3 02:34:33 25° S 02:36:56 80° E 02:41:07 10° N
Cosmos 1862 Rocket 3.6 02:33:48 19° S 02:36:57 82° W 02:41:24 10° N
SL-16 R/B 3.4 02:40:15 10° NW 02:45:16 33° WSW 02:49:14 15° SSW
COSMOS 2455 4.0 02:44:44 22° ESE 02:45:51 24° ESE 02:50:30 10° NE
RESURS DK-1 3.7 02:43:57 10° NW 02:47:32 30° WSW 02:49:28 20° SSW
H-2A R/B 4.4 02:46:38 15° E 02:48:25 19° ENE 02:51:25 10° NNE
Cosmos 2333 Rocket 2.4 02:44:15 10° NNW 02:49:59 69° WSW 02:53:10 27° S
SJ 16-02 1.4 02:50:26 18° SSW 02:53:37 73° WNW 02:57:57 10° NNE
Terra 3.5 02:56:42 12° SSW 03:00:14 25° W 03:04:09 10° NW
CZ-2C R/B 3.9 02:58:25 10° NNE 03:02:43 49° E 03:03:53 38° SE
USA 234 3.9 02:56:23 10° NE 03:02:46 57° NNW 03:09:07 10° WSW
Atlas Centaur 2 4.1 02:57:54 10° WSW 03:03:51 22° SSW 03:05:10 21° S
DNEPR-1 R/B 4.2 02:58:00 10° NW 03:04:38 89° ENE 03:07:12 33° SE
SL-08 R/B 4.4 03:04:04 28° S 03:07:31 79° E 03:13:37 10° N
Cosmos 2237 Rocket 4.0 03:04:04 10° N 03:08:28 22° NE 03:12:33 11° E
Aureole 3 4.4 03:06:45 20° SW 03:09:15 45° WNW 03:13:54 10° N
Cosmos 371 Rocket 4.4 03:11:23 25° ESE 03:11:44 25° E 03:15:40 10° NE
SL-4 R/B 3.5 03:08:06 10° NW 03:11:45 34° NNE 03:15:36 10° E
Cosmos 2322 3.9 03:07:04 10° NNW 03:12:43 63° ENE 03:15:19 32° SE
CZ-4C R/B 2.8 03:13:34 27° ESE 03:13:34 27° ESE 03:17:41 10° NE
Cosmos 2227 Rocket 4.3 03:13:49 11° E 03:14:04 11° E 03:15:32 10° E
ARIANE 5 R/B 2.7 03:15:40 43° SE 03:16:54 64° ENE 03:21:12 10° N
Okean 1-7 3.6 03:19:44 28° SW 03:21:49 54° WNW 03:26:04 10° N
Meteor 1-4 Rocket 4.0 03:20:59 20° WSW 03:22:02 25° WNW 03:24:35 10° NNW
Cosmos 2322 Rocket 3.8 03:22:49 10° NW 03:27:17 24° WSW 03:30:11 16° SW
ATLAS CENTAUR R/B 4.0 03:25:45 10° W 03:28:03 16° NW 03:30:25 10° N
Cosmos 1486 Rocket 4.3 03:29:37 40° SE 03:30:46 47° ESE 03:35:45 10° NNE
Okean 2 4.4 03:30:42 25° SW 03:32:26 39° WNW 03:36:14 10° N
Cosmos 2297 Rocket 3.0 03:32:34 31° ESE 03:33:24 32° ESE 03:38:22 10° NE
Cosmos 1908 Rocket 3.9 03:29:21 10° NNW 03:33:36 56° W 03:34:47 41° SSW
Cosmos 1242 Rocket 2.9 03:34:06 43° NW 03:34:06 43° NW 03:36:28 10° N
GP-B 3.1 03:30:08 10° N 03:34:34 77° W 03:35:47 47° SSW
Cosmos 1782 Rocket 3.4 03:32:13 10° N 03:36:34 79° E 03:37:25 56° SSE
Spot 4 4.2 03:38:28 40° SE 03:39:52 55° ENE 03:44:34 10° N
Cosmos 1315 Rocket 4.3 03:38:28 20° WSW 03:40:27 31° WNW 03:44:03 10° N
Cosmos 1953 3.2 03:37:01 10° NNW 03:40:32 36° W 03:41:18 32° WSW
NOSS 5 (C) 4.4 03:40:38 10° NNW 03:43:35 69° NNE 03:43:35 69° NNE
PSLV R/B 3.9 03:44:53 10° N 03:48:52 71° WNW 03:49:38 54° SW
H-2A R/B 4.0 03:47:00 10° NE 03:49:29 16° E 03:49:29 16° E
BlueWalker 3 2.3 03:48:25 17° WSW 03:51:08 60° NNW 03:54:52 10° NE
ATLAS 2AS CENTAUR R/B 3.7 03:45:43 10° NW 03:51:29 31° WSW 03:53:49 25° SSW
Cosmos 2219 Rocket 3.0 03:46:36 10° NW 03:51:50 38° WSW 03:53:40 30° SW
Cosmos 1745 Rocket 4.1 03:48:52 33° SSW 03:51:54 79° W 03:58:19 10° N
Cosmos 1300 Rocket 3.4 03:49:05 10° N 03:53:23 83° W 03:54:04 62° S
NOSS 8 (H) 4.4 03:53:46 81° NE 03:53:46 81° NE 03:56:47 10° NE
Cosmos 405 Rocket 4.0 03:51:19 10° NNE 03:54:37 28° ENE 03:54:54 28° E
COSMOS 2428 2.7 03:49:18 10° NNW 03:55:01 78° WSW 03:56:49 45° S
Meteor 2-5 Rocket 4.1 03:53:35 40° SE 03:55:21 54° E 04:01:02 10° NNE
USA 281 3.3 03:54:58 37° S 03:57:40 66° WSW 04:04:14 10° NNW
Cosmos 304 Rocket 3.8 03:58:19 54° SE 03:58:57 59° ESE 04:03:39 10° NNE
Nadezhda 1 Rocket 4.2 03:55:38 10° NNW 04:01:49 61° W 04:04:20 36° SSW
Cosmos 1408 3.1 04:03:14 45° NW 04:03:14 45° NW 04:05:37 10° N
Cosmos 2263 Rocket 4.3 04:05:26 11° E 04:05:58 11° E 04:07:17 10° E
ALOS 2 2.6 04:06:37 59° SE 04:07:19 73° ENE 04:11:43 10° N
Cosmos 158 Rocket 4.1 04:02:57 10° NNW 04:08:11 64° WSW 04:09:23 49° SSW
Okean 2 Rocket 4.2 04:04:57 10° N 04:09:02 33° ENE 04:09:56 30° E
Cosmos 1455 4.2 04:07:17 10° NW 04:09:33 16° W 04:09:56 16° W
Cosmos 1674 Rocket 4.5 04:11:07 33° E 04:11:22 34° E 04:15:17 10° NNE
Cosmos 2181 Rocket 4.3 04:05:35 10° N 04:11:38 54° ENE 04:13:55 36° SE
Cosmos 1378 Rocket 4.2 04:11:41 40° ESE 04:11:57 41° E 04:16:04 10° NNE
BREEZE-M DEB (TANK) 4.5 04:13:51 10° NW 04:15:47 16° N 04:17:13 10° NE
Cosmos 2360 Rocket 4.4 04:14:21 10° WNW 04:16:19 12° W 04:18:17 10° WSW
Cosmos 1703 3.1 04:18:25 73° WNW 04:18:25 73° WNW 04:22:02 10° N
Cosmos 1892 3.9 04:19:11 29° ENE 04:19:11 29° ENE 04:21:45 10° NNE
BREEZE-M DEB (TANK) 4.0 04:11:33 10° WNW 04:22:09 52° N 04:25:29 10° ENE
H-2A R/B 3.1 04:22:37 43° WSW 04:23:01 45° W 04:27:07 10° NNW
Spot 2 4.4 04:23:04 54° S 04:24:12 78° WSW 04:29:17 10° NNW
Cosmos 2221 Rocket 4.0 04:27:05 45° ESE 04:27:26 47° E 04:31:42 10° NNE
Cosmos 773 Rocket 3.9 04:25:59 10° NNW 04:31:09 76° WSW 04:32:11 56° S
COSMOS 2455 3.2 04:27:48 25° SW 04:31:17 62° NW 04:37:18 10° NNE
Sich 1 Rocket 3.7 04:30:41 10° N 04:35:02 61° E 04:35:34 56° ESE
Cosmos 1174 4.3 04:34:11 10° NNW 04:39:02 61° NE 04:39:49 51° E
NOSS 0 Rocket 4.2 04:33:51 10° NW 04:39:55 54° WSW 04:41:34 42° SSW
CZ-3 Stage 3 4.4 04:21:06 10° W 04:41:33 30° SW 04:43:33 28° SSW
Cosmos 1825 2.5 04:45:15 51° NE 04:45:15 51° NE 04:48:05 10° NNE
Cosmos 1777 Rocket 4.1 04:44:04 46° SW 04:45:36 74° WNW 04:50:55 10° NNE
Cosmos 1503 Rocket 4.3 04:44:15 39° SW 04:46:06 61° WNW 04:51:22 10° NNE
SL-16 R/B 3.4 04:41:10 10° NNW 04:46:26 37° NE 04:50:11 17° ESE
CENTAUR R/B 2.5 04:46:01 46° SSE 04:47:09 52° ESE 04:53:39 10° NE
SL-4 R/B 1.9 04:46:43 10° WNW 04:50:42 79° WSW 04:50:42 79° WSW
Cosmos 371 Rocket 4.4 04:49:56 26° WSW 04:51:51 37° WNW 04:56:21 10° N
Cosmos 2237 Rocket 2.2 04:47:25 10° NNW 04:53:03 67° WSW 04:54:21 51° S
Cosmos 2227 Rocket 2.1 04:55:36 50° S 04:57:07 80° ESE 05:02:49 10° NNE
Nadezhda 3 Rocket 4.3 04:52:28 10° N 04:58:40 59° ENE 05:01:13 35° SE
GEOS 3 Rocket 3.6 04:54:04 10° NE 04:59:10 59° SE 04:59:59 52° SSE
Meteor 1-24 Rocket 4.5 04:58:53 31° SW 05:01:08 45° WNW 05:06:33 10° N
CZ-4C R/B 3.0 04:58:36 20° WSW 05:01:24 41° NW 05:06:46 10° NNE
Cosmos 1980 4.0 05:00:49 10° NW 05:06:15 49° WSW 05:07:17 44° SW
Cosmos 2184 Rocket 4.0 05:04:30 44° S 05:06:43 89° W 05:13:09 10° N
Okean 1 Rocket 2.9 05:02:30 10° N 05:06:53 85° E 05:07:21 71° SSE
PSLV R/B 4.3 05:09:29 10° N 05:13:27 40° WNW 05:14:11 37° W
Cosmos 2297 Rocket 3.2 05:14:19 23° WSW 05:17:18 40° WNW 05:22:38 10° NNE
Aureole 1 Rocket 3.2 05:21:02 47° E 05:21:02 47° E 05:24:57 10° NNE
Meteor 1-21 Rocket 4.4 05:19:14 43° SSE 05:21:03 66° E 05:26:41 10° NNE
Cosmos 2219 3.2 05:19:41 48° S 05:21:10 69° ESE 05:26:45 10° NNE
Cosmos 2084 Rocket 4.4 05:19:51 30° W 05:21:21 41° NW 05:25:18 10° NNE
Cosmos 2154 Rocket 3.9 05:21:34 43° SSW 05:23:47 82° W 05:30:08 10° N
H-2A R/B 2.5 05:21:32 10° N 05:25:36 46° WNW 05:26:17 42° W
Cosmos 1898 Rocket 4.0 05:25:01 39° SE 05:26:09 46° ESE 05:31:05 10° NNE
Cosmos 1975 Rocket 3.5 05:28:55 43° SE 05:29:39 48° E 05:33:53 10° NNE
BlueWalker 3 4.3 05:26:51 10° WNW 05:29:52 22° N 05:32:53 10° NE
NOSS 3-2 (A) 3.1 05:34:24 49° SSW 05:35:49 74° ESE 05:41:48 10° NE
Cosmos 292 Rocket 3.7 05:35:18 55° S 05:36:14 73° ESE 05:41:02 10° NNE
Resurs 1-4 Rocket 4.1 05:34:49 10° NE 05:38:23 18° E 05:41:06 13° SE
NOSS 3-2 (C) 3.9 05:41:30 33° SE 05:42:41 37° ESE 05:48:02 10° NE
Cosmos 1455 Rocket 3.0 05:38:41 10° N 05:43:09 87° E 05:44:01 58° SSE
Elektron 3 4.1 05:43:15 10° NW 05:48:37 79° SW 05:48:57 70° S
Cosmos 2263 Rocket 2.1 05:47:05 44° SSW 05:48:54 80° ESE 05:54:29 10° NNE
Helios 1A Rocket 3.1 05:48:09 48° ESE 05:48:54 60° ENE 05:52:40 10° N
Cosmos 1461 3.0 05:53:11 52° SE 05:53:20 53° ESE 05:57:10 10° NE
Cosmos 1025 Rocket 3.6 05:52:53 41° WSW 05:53:38 45° WNW 05:57:47 10° N
Cosmos 1680 Rocket 4.1 05:54:04 10° NNW 05:59:10 52° ENE 06:02:54 18° SE
SL-19 R/B 3.9 06:00:16 10° NNE 06:02:48 61° N 06:02:48 61° N
Cosmos 1818 3.8 06:00:30 10° NNW 06:06:00 71° NE 06:11:04 12° SE
Cosmos 1844 Rocket 4.3 06:05:47 16° SE 06:08:33 24° ESE 06:12:54 10° NE
Cosmos 1869 3.1 06:10:03 10° N 06:13:46 76° E 06:14:31 54° SSE
Cosmos 2341 Rocket 3.9 06:11:19 35° S 06:14:12 85° W 06:20:27 10° N
COBE Rocket 4.1 06:12:05 10° NNE 06:17:15 73° E 06:19:27 35° S
Cosmos 864 Rocket 4.5 06:17:48 32° S 06:21:02 88° E 06:27:24 10° N
Cosmos 1437 Rocket 4.2 06:19:56 21° SE 06:21:27 28° E 06:24:44 10° NNE
In-Cosmos 22 Rocket 4.5 06:19:43 34° SW 06:22:10 59° WNW 06:27:58 10° N
IDEFIX/ARIANE 42P 2.8 06:20:08 10° NNE 06:25:21 61° ESE 06:27:56 29° S
SL-16 R/B 2.9 06:25:20 10° NW 06:30:29 36° WSW 06:32:00 31° SW
Cosmos 1900 4.4 06:31:55 36° SSW 06:34:04 79° ESE 06:39:11 10° NE
CZ-2C R/B 3.9 06:29:40 10° NNE 06:34:49 44° E 06:38:01 20° SSE
Cosmos 1603 4.5 06:29:56 10° NNW 06:35:34 53° ENE 06:41:09 10° SE
Cosmos 858 Rocket 4.5 06:34:25 34° SSW 06:36:45 75° WNW 06:42:00 10° NNE
CENTAUR R/B 3.7 06:33:07 12° W 06:38:03 37° NW 06:44:42 10° NNE
Cosmos 2082 4.4 06:36:51 24° WSW 06:39:52 45° WNW 06:45:16 10° NNE
CZ-2C R/B 2.8 06:36:30 16° SSE 06:40:41 72° ENE 06:46:04 10° N
MOZ.5/SAFIR/RUBIN 5/SL-8 3.8 06:39:24 34° SSW 06:41:12 58° W 06:45:47 10° NNW
MSX 3.9 06:35:56 10° NNE 06:41:41 74° ESE 06:45:06 25° S
Cosmos 2227 Rocket 4.2 06:37:49 10° W 06:41:51 20° NW 06:45:54 10° N
CZ-2D R/B 2.4 06:37:11 10° NNE 06:42:29 61° ESE 06:45:38 24° S
Cosmos 1821 Rocket 4.0 06:40:25 24° S 06:44:16 77° E 06:50:25 10° N
Cosmos 1943 3.1 06:38:46 10° NNW 06:44:25 87° WSW 06:49:35 12° SSE
USA 238 DEB 3.7 06:45:17 26° SSW 06:48:47 63° ESE 06:55:21 10° NE
Cosmos 1606 3.2 06:45:30 10° NNW 06:48:48 36° W 06:49:14 34° WSW
USA 238 3.7 06:45:20 26° SSW 06:48:50 62° ESE 06:55:24 10° NE
FENGYUN 3A 4.4 06:43:41 10° NNE 06:48:52 46° E 06:52:47 17° SSE
Cosmos 2218 Rocket 4.2 06:45:40 27° SSW 06:49:03 60° W 06:55:11 10° N
Cosmos 2228 3.0 06:47:22 10° NNW 06:51:39 63° W 06:53:30 32° SSW
Cosmos 1867 3.8 06:49:37 27° SSW 06:52:30 64° ESE 06:57:56 10° NE
Cosmos 2366 rocket 4.3 06:51:04 26° SW 06:54:32 52° WNW 07:00:38 10° N
Cosmos 1544 Rocket 4.1 06:50:41 10° NNW 06:54:53 43° W 06:56:27 30° SW
H-2A R/B 3.3 06:53:43 10° N 06:57:42 72° WNW 06:59:26 32° SSW
NPP 3.7 06:57:04 10° N 07:02:27 67° WNW 07:05:42 24° SSW
ADEOS II 2.4 06:57:27 10° NNE 07:02:40 62° ESE 07:06:30 18° S
Cosmos 1937 Rocket 4.5 07:00:05 20° WSW 07:03:02 36° WNW 07:07:53 10° N
ALOS 3.4 07:01:18 10° NNE 07:05:34 36° E 07:09:34 11° SSE
BlueWalker 3 4.5 07:05:57 10° NW 07:08:57 22° N 07:11:59 10° ENE
Cosmos 2227 4.5 07:11:34 22° SW 07:15:17 60° WNW 07:21:00 10° NNE
Resurs 1-4 Rocket 2.3 07:13:22 10° N 07:18:35 62° WNW 07:22:10 20° SSW
Cosmos 2123 Rocket 4.3 07:14:53 10° N 07:21:04 67° E 07:27:13 10° SSE
Cosmos 1934 Rocket 4.4 07:15:10 10° S 07:21:20 65° E 07:27:39 10° NNE
SL-16 R/B 2.7 07:17:06 10° SSE 07:23:21 80° ENE 07:29:36 10° NNW
Cosmos 1844 3.8 07:19:48 19° SSW 07:24:01 84° ESE 07:29:52 10° NNE
Cosmos 921 Rocket 2.8 07:21:50 10° NNW 07:26:04 74° WSW 07:30:12 10° S
Cosmos 1606 Rocket 3.5 07:25:59 10° NNW 07:30:25 69° W 07:34:19 13° S
NOSS 3-2 (C) 4.2 07:28:54 13° WSW 07:33:25 40° NW 07:39:21 10° NNE
Cosmos 2263 Rocket 4.1 07:29:36 10° W 07:33:30 19° NW 07:37:25 10° N
USA 267 3.6 07:27:33 10° NE 07:33:59 58° SE 07:39:25 15° SSW
Cosmos 2058 3.5 07:34:28 10° S 07:38:24 53° E 07:42:22 10° NNE
Meteor 1-28 Rocket 3.0 07:35:58 13° S 07:39:06 65° WSW 07:42:38 10° NNW
BREEZE-M DEB (TANK) 3.9 07:34:40 15° SSW 07:40:47 35° SSE 07:43:55 10° E
Cosmos 1726 Rocket 3.6 07:41:05 10° NNW 07:45:29 64° W 07:49:50 10° S
Iridium 2 2.5 07:44:41 21° SSW 07:46:07 64° W 07:48:34 10° N
Cosmos 1238 Rocket 3.3 07:44:56 10° N 07:48:12 45° ENE 07:51:07 10° SSE
Alouette 2 Rocket 3.5 07:44:25 11° SSW 07:48:55 88° WNW 07:52:38 10° NNE
Cosmos 1844 Rocket 3.1 07:47:26 14° SW 07:52:02 52° WNW 07:57:29 10° NNE
Cosmos 724 4.2 07:49:15 10° NW 07:55:05 83° WSW 08:00:56 10° SSE
Cosmos 1437 Rocket 4.4 07:54:44 12° WSW 07:57:06 20° WNW 07:59:58 10° NNW
SAR-Lupe-1 4.0 07:58:03 10° N 08:01:38 78° WNW 08:05:12 10° SSW
IDEFIX/ARIANE 42P 4.3 08:00:40 10° NNW 08:04:23 20° WNW 08:08:03 10° WSW
ASTEX 1 4.1 08:04:28 10° SSW 08:08:55 35° W 08:13:23 10° NNW
USA 234 4.1 08:02:43 10° ESE 08:09:03 55° NNE 08:15:25 10° NW
CZ-2C R/B 3.0 08:08:24 10° NNE 08:12:51 51° E 08:17:20 10° S
Envisat 3.1 08:08:50 10° NNE 08:13:56 84° ESE 08:19:00 10° SSW
CZ-2C R/B 4.4 08:09:56 10° N 08:14:20 26° WNW 08:18:32 10° WSW
Timation 2 Rocket 4.1 08:08:46 10° SSW 08:15:25 77° WNW 08:21:49 10° NNE
Cosmos 2278 Rocket 4.3 08:12:48 10° SSE 08:17:10 23° ESE 08:21:33 10° NE
Lacrosse 5 4.4 08:16:45 10° SE 08:18:39 12° ESE 08:20:34 10° E
CZ-2C R/B 4.3 08:18:27 10° SW 08:21:31 15° W 08:24:38 10° NW
CZ-2D R/B 3.8 08:18:11 10° NNW 08:22:00 20° WNW 08:25:45 10° WSW
Cosmos 2058 Rocket 3.5 08:22:07 10° NNW 08:26:20 44° W 08:30:30 10° SSW
Genesis I 3.2 08:22:54 10° NNW 08:26:32 76° NE 08:30:08 10° SE
Cosmos 1125 Rocket 4.0 08:21:48 10° SW 08:26:52 48° WNW 08:32:01 10° N
BREEZE M DEB (TANK) 4.0 08:16:14 10° WNW 08:27:01 73° NNE 08:30:27 10° ESE
UNK 4.2 08:23:02 10° SSW 08:27:21 40° W 08:31:42 10° NNW
Cosmos 1271 Rocket 3.9 08:24:03 10° SSE 08:27:24 40° E 08:30:48 10° NNE
Cosmos 1544 2.8 08:25:03 10° SSW 08:27:32 39° WNW 08:30:01 10° N
Cosmos 1758 Rocket 3.9 08:26:47 10° S 08:31:11 71° E 08:35:34 10° NNE
Cosmos 1607 4.5 08:26:12 10° NW 08:31:59 37° WSW 08:37:39 10° S
